Flag for U.S.A. Weather past 2 weeks in Aliso Viejo, California, U.S.A.

Now
62 °F

Passing clouds.


Feels Like: 62 °F
Forecast: 58 / 70 °F
Wind: 6 mph from West

Location: John Wayne Airport-Orange County Airport

Current Time: May 24, 2015 at 9:39:12 PM

Latest Report: May 24, 2015 at 8:53 PM


Visibility: 10 mi

Pressure: 29.96 "Hg

Humidity: 73%

Dew point: 53 °F

Location of Aliso ViejoLocation

Historic Weather in Aliso Viejo — Graph

°F

Aliso Viejo temperature yesterday

Maximum temperature yesterday: 69 °F (at 11:53 AM)
Minimum temperature yesterday: 60 °F (at 2:53 AM)
Average temperature yesterday: 64 °F

Past Weeks' High & Low Weather Summary

 TemperatureHumidityPressure
High71 °F (May 10, 1:53 PM)87% (May 11, 2:53 AM)30.09 "Hg (May 11, 2:53 AM)
Low54 °F (May 10, 4:53 AM)44% (May 21, 12:53 PM)29.81 "Hg (May 11, 6:53 PM)
Average62 °F68%29.97 "Hg
* Reported May 9 7:53 PM — May 24 7:53 PM, Aliso Viejo, Weather by CustomWeather, © 2015

Note: Actual official high and low records may vary slightly from our data, if they occured in-between our weather recording intervals... More about our weather records

Advertising

Aliso Viejo weather history for previous 24 hours

 ConditionsComfort  
Time TempWeatherWind HumidityBarometerVisibility
7:53 PM
Sun, May 24
63 °FPassing clouds.7 mph70%29.95 "Hg10 mi
6:53 PM65 °FSunny.6 mph63%29.94 "Hg10 mi
5:53 PM66 °FScattered clouds.7 mph61%29.95 "Hg10 mi
4:53 PM67 °FScattered clouds.6 mph59%29.96 "Hg10 mi
3:53 PM67 °FScattered clouds.8 mph59%29.98 "Hg10 mi
2:53 PM65 °FBroken clouds.7 mph63%29.99 "Hg10 mi
1:53 PM65 °FPartly sunny.8 mph61%30.00 "Hg10 mi
12:53 PM66 °FMostly cloudy.8 mph56%30.01 "Hg10 mi
11:53 AM65 °FPartly sunny.3 mph59%30.02 "Hg10 mi
10:53 AM63 °FCloudy.5 mph65%30.03 "Hg10 mi
9:53 AM63 °FMostly cloudy.6 mph68%30.03 "Hg10 mi
8:53 AM62 °FCloudy.6 mph70%30.02 "Hg10 mi
7:53 AM62 °FCloudy.5 mph70%30.02 "Hg10 mi
6:53 AM61 °FMore clouds than sun.3 mph72%30.01 "Hg10 mi
5:53 AM61 °FOvercast.3 mph72%29.99 "Hg10 mi
4:53 AM61 °FOvercast.No wind72%29.98 "Hg10 mi
3:53 AM61 °FOvercast.6 mph72%29.98 "Hg10 mi
2:53 AM62 °FMostly cloudy.No wind70%29.98 "Hg10 mi
1:53 AM62 °FOvercast.No wind70%29.98 "Hg10 mi
12:53 AM61 °FOvercast.3 mph72%30.01 "Hg10 mi
11:53 PM
Sat, May 23
62 °FOvercast.3 mph67%30.02 "Hg10 mi
10:53 PM62 °FMostly cloudy.3 mph70%30.03 "Hg10 mi
9:53 PM62 °FMostly cloudy.6 mph73%30.04 "Hg10 mi
Weather by CustomWeather, © 2015

See weather overviewHow to use our weather pages